This demonstration page uses our WeatherBlox Daily Observations layout. Learn more.

Left ArrowRight Arrow

Hourly Observations for December 1, 2019

Temp ( °F °C ) Dew Point ( °F °C ) Humidity (%) Winds ( mph kmh ) Pressure ( in mb ) Visibility ( mi km ) Precip ( " mm )
12:56 am 00:56 Cloudy with Light Rain 36 2 34 1 93 93 WNW 24 39 29.40 996 10 16 0.00 0.00
1:18 am 01:18 Cloudy with Light Rain 36 2 32 0 87 87 NW 28 44 29.43 997 10 16 0.00 0.00
1:56 am 01:56 Cloudy with Light Rain 36 2 32 0 87 87 NW 28 44 29.47 998 10 16 0.00 0.00
2:56 am 02:56 Cloudy with Light Rain 34 1 28 -2 81 81 WNW 26 43 29.54 1001 10 16 0.00 0.00
3:56 am 03:56 Cloudy with Light Rain 34 1 27 -3 75 75 NW 31 50 29.60 1002 10 16 0.00 0.00
4:44 am 04:44 Windy with Snow Likely 34 1 27 -3 75 75 NW 33 54 29.64 1004 10 16 0.00 0.00
4:56 am 04:56 Windy with Snow Likely 32 0 27 -3 80 80 NW 30 48 29.65 1004 10 16 0.00 0.00
5:27 am 05:27 Cloudy with Light Rain 32 0 27 -3 80 80 NW 29 46 29.66 1005 10 16 0.00 0.00
5:56 am 05:56 Windy with Snow Likely 32 0 25 -4 75 75 WNW 20 31 29.69 1005 10 16 0.00 0.00
6:56 am 06:56 Windy with Snow Likely 30 -1 23 -5 75 75 NW 26 43 29.74 1007 10 16 0.00 0.00
7:39 am 07:39 Cloudy 30 -1 23 -5 75 75 NW 28 44 29.78 1008 10 16 0.00 0.00
7:56 am 07:56 Cloudy 30 -1 23 -5 75 75 NW 22 35 29.79 1009 10 16 0.00 0.00
8:56 am 08:56 Cloudy 28 -2 23 -5 80 80 NW 20 31 29.84 1010 10 16 0.00 0.00
9:56 am 09:56 Sunny N/A N/A N/A NW 21 33 N/A 10 16 0.00 0.00
10:56 am 10:56 Cloudy 30 -1 21 -6 69 69 WNW 22 35 29.91 1013 10 16 0.00 0.00
11:56 am 11:56 Cloudy 30 -1 21 -6 69 69 NW 25 41 29.93 1013 10 16 0.00 0.00
12:56 pm 12:56 Mostly Cloudy 30 -1 21 -6 69 69 NW 25 41 29.95 1014 10 16 0.00 0.00
1:56 pm 13:56 Cloudy 30 -1 21 -6 69 69 NW 22 35 29.98 1015 10 16 0.00 0.00
2:56 pm 14:56 Cloudy 30 -1 21 -6 69 69 NW 20 31 30.02 1017 10 16 0.00 0.00
3:56 pm 15:56 Cloudy 28 -2 21 -6 74 74 NW 17 28 30.06 1018 10 16 0.00 0.00
4:56 pm 16:56 Cloudy 28 -2 21 -6 74 74 NW 22 35 30.10 1019 10 16 0.00 0.00
5:56 pm 17:56 Cloudy 28 -2 23 -5 80 80 NW 18 30 30.13 1020 10 16 0.00 0.00
6:56 pm 18:56 Cloudy 28 -2 23 -5 80 80 NW 17 28 30.16 1022 10 16 0.00 0.00
7:56 pm 19:56 Cloudy 28 -2 21 -6 74 74 NW 14 22 30.17 1022 10 16 0.00 0.00
8:56 pm 20:56 Mostly Cloudy 27 -3 19 -7 74 74 NW 14 22 30.19 1022 10 16 0.00 0.00
9:56 pm 21:56 Partly Cloudy 25 -4 18 -8 74 74 NW 13 20 30.22 1023 10 16 0.00 0.00
10:56 pm 22:56 Partly Cloudy 25 -4 16 -9 69 69 NW 17 28 30.22 1024 10 16 0.00 0.00
11:56 pm 23:56 Partly Cloudy 25 -4 16 -9 69 69 NW 10 17 30.24 1024 10 16 0.00 0.00

Powered by AerisWeather